Home   Weather   Buxar   Past weeks

Flag for India Past Weather in Buxar, Bihar, India — Yesterday and Last 2 Weeks

Now
84 °F

Broken clouds.


Feels Like: 101 °F
Forecast: 81 / 94 °F
Wind: No wind

Location: Lucknow / Amausi

Current Time: Aug 30, 2016 at 6:44:39 PM

Latest Report: Aug 30, 2016 at 6:00 PM


Visibility: 2 mi

Pressure: 29.53 "Hg

Humidity: 94%

Dew Point: 82 °F

Location of BuxarLocation

Past Weather in Buxar — Graph

°F

Buxar Temperature Yesterday

Maximum temperature yesterday: 97 °F (at 2:30 PM)
Minimum temperature yesterday: 84 °F (at 2:00 AM)
Average temperature yesterday: 89 °F

High & Low Weather Summary for the Past Weeks

 TemperatureHumidityPressure
High99 °F (Aug 25, 12:00 PM)100% (Aug 15, 6:00 PM)29.77 "Hg (Aug 15, 6:00 PM)
Low77 °F (Aug 17, 12:00 AM)56% (Aug 29, 2:30 PM)29.36 "Hg (Aug 16, 4:00 PM)
Average86 °F88%29.57 "Hg
* Reported Aug 15 6:00 PM — Aug 30 5:30 PM, Buxar, Weather by CustomWeather, © 2016

Note: Actual official high and low records may vary slightly from our data, if they occured in-between our weather recording intervals... More about our weather records

Advertising

Buxar Weather History for the Previous 24 Hours

Scroll right to see more
 ConditionsComfort  
Time TempWeatherWind HumidityBarometerVisibility
5:30 PM
Tue, Aug 30
86 °FBroken clouds.No wind89%29.53 "Hg2 mi
5:00 PM86 °FMore clouds than sun.No wind89%29.50 "Hg2 mi
4:30 PM84 °FMore clouds than sun.No wind94%29.53 "Hg2 mi
4:00 PM84 °FMore clouds than sun.No wind94%29.53 "Hg2 mi
3:30 PM86 °FMore clouds than sun.No wind89%29.53 "Hg2 mi
3:00 PM84 °FMore clouds than sun.2 mph89%29.53 "Hg2 mi
2:30 PM82 °FLight rain. More clouds than sun.2 mph94%29.56 "Hg2 mi
2:00 PM82 °FLight rain. More clouds than sun.2 mph94%29.56 "Hg2 mi
1:00 PM86 °FLight rain. More clouds than sun.9 mph89%29.56 "Hg2 mi
12:00 PM93 °FBroken clouds.No wind71%29.59 "Hg2 mi
11:30 AM93 °FBroken clouds.No wind71%29.59 "Hg2 mi
10:30 AM93 °FBroken clouds.No wind71%29.59 "Hg2 mi
10:00 AM93 °FBroken clouds.No wind71%29.59 "Hg2 mi
9:00 AM91 °FBroken clouds.No wind75%29.59 "Hg2 mi
8:30 AM91 °FScattered clouds.No wind71%29.59 "Hg2 mi
8:00 AM88 °FScattered clouds.No wind79%29.56 "Hg2 mi
7:30 AM88 °FPartly sunny.No wind79%29.59 "Hg2 mi
7:00 AM86 °FPartly sunny.No wind84%29.56 "Hg2 mi
6:30 AM84 °FPartly sunny.No wind89%29.56 "Hg2 mi
6:00 AM84 °FPassing clouds.No wind89%29.56 "Hg2 mi
5:30 AM82 °FPassing clouds.No wind94%29.56 "Hg2 mi
5:00 AM82 °FPassing clouds.No wind94%29.56 "Hg2 mi
4:00 AM82 °FPassing clouds.No wind94%29.53 "Hg2 mi
3:00 AM82 °FPartly cloudy.No wind94%29.56 "Hg2 mi
2:00 AM84 °FPartly cloudy.No wind89%29.56 "Hg2 mi
1:00 AM84 °FPartly cloudy.No wind84%29.56 "Hg2 mi
12:00 AM84 °FThunderstorms. Partly cloudy.No wind84%29.59 "Hg2 mi
11:00 PM
Mon, Aug 29
86 °FThunderstorms. Partly cloudy.No wind79%29.62 "Hg2 mi
10:00 PM86 °FThunderstorms. Partly cloudy.No wind79%29.62 "Hg2 mi
Weather by CustomWeather, © 2016

See weather overviewHow to use our weather pages